This demonstration page uses our WeatherBlox Daily Observations layout. Learn more.

Hourly Observations for October 31, 2015

Temp ( °F °C ) Dew Point ( °F °C ) Humidity (%) Winds ( mph kmh ) Pressure ( in mb ) Visibility ( mi km ) Precip ( " mm )
12:15 am 00:15 Cloudy with Light Drizzle 41 5 39 4 93 93 Calm 29.83 1010 7 11.265408 0 0
12:35 am 00:35 Cloudy with Light Drizzle 41 5 39 4 93 93 Calm 29.83 1010 10 16.09344 0 0
12:55 am 00:55 Cloudy 41 5 39 4 93 93 Calm 29.83 1010 7 11.265408 0 0
1:15 am 01:15 Cloudy 41 5 39 4 93 93 Calm 29.83 1010 7 11.265408 0 0
1:35 am 01:35 Cloudy 41 5 39 4 93 93 SW 3 6 29.83 1010 7 11.265408 0 0
1:55 am 01:55 Cloudy 41 5 39 4 93 93 SW 3 6 29.8 1009 10 16.09344 0 0
2:15 am 02:15 Cloudy 41 5 39 4 93 93 WSW 5 7 29.83 1010 10 16.09344 0 0
2:35 am 02:35 Cloudy 41 5 39 4 93 93 WSW 5 7 29.8 1009 10 16.09344 0 0
2:55 am 02:55 Cloudy 41 5 39 4 93 93 SW 3 6 29.8 1009 10 16.09344 0 0
3:15 am 03:15 Mostly Cloudy 39 4 39 4 100 100 WSW 3 6 29.8 1009 10 16.09344 0 0
3:35 am 03:35 Cloudy 39 4 39 4 100 100 W 6 9 29.8 1009 10 16.09344 0 0
3:55 am 03:55 Cloudy 39 4 39 4 100 100 Calm 29.77 1008 10 16.09344 0 0
4:15 am 04:15 Cloudy with Mist and Fog 39 4 37 3 93 93 WSW 7 11 29.8 1009 4 6.437376 0 0
4:35 am 04:35 Cloudy with Mist and Fog 39 4 37 3 93 93 W 8 13 29.8 1009 0.75 1.207008 0 0
4:55 am 04:55 Cloudy with Mist and Fog 39 4 39 4 100 100 W 9 15 29.8 1009 2.5 4.02336 0 0
5:15 am 05:15 Cloudy with Mist and Fog 41 5 39 4 93 93 W 7 11 29.77 1008 5 8.04672 0 0
5:35 am 05:35 Cloudy with Mist and Fog 41 5 39 4 93 93 W 7 11 29.77 1008 4 6.437376 0 0
5:55 am 05:55 Cloudy with Mist and Fog 41 5 39 4 93 93 W 9 15 29.77 1008 1.75 2.816352 0 0
6:15 am 06:15 Cloudy with Mist and Fog 41 5 41 5 100 100 W 9 15 29.77 1008 1.75 2.816352 0 0
6:35 am 06:35 Cloudy with Mist and Fog 41 5 41 5 100 100 W 9 15 29.77 1008 1.75 2.816352 0 0
6:55 am 06:55 Cloudy with Mist and Fog 41 5 41 5 100 100 W 8 13 29.77 1008 2.5 4.02336 0 0
7:15 am 07:15 Cloudy with Mist and Fog 41 5 39 4 93 93 W 6 9 29.77 1008 1.75 2.816352 0 0
7:35 am 07:35 Cloudy with Mist and Fog 41 5 39 4 93 93 WSW 5 7 29.77 1008 2.5 4.02336 0 0
7:55 am 07:55 Cloudy with Mist and Fog 39 4 39 4 100 100 WSW 6 9 29.77 1008 0.75 1.207008 0 0
8:15 am 08:15 Cloudy with Fog 39 4 39 4 100 100 WSW 7 11 29.8 1009 0.5 0.804672 0 0
8:35 am 08:35 Cloudy with Fog 39 4 39 4 100 100 SW 7 11 29.8 1009 0.25 0.402336 0 0
8:55 am 08:55 Cloudy with Mist and Fog 39 4 39 4 100 100 WSW 6 9 29.8 1009 1.25 2.01168 0 0
9:15 am 09:15 Cloudy with Mist and Fog 41 5 39 4 93 93 WSW 8 13 29.83 1010 2.5 4.02336 0 0
9:35 am 09:35 Mostly Cloudy with Mist and Fog 41 5 39 4 93 93 WSW 6 9 29.83 1010 5 8.04672 0 0
9:55 am 09:55 Partly Cloudy 43 6 41 5 93 93 WSW 7 11 29.83 1010 10 16.09344 0 0
10:15 am 10:15 Sunny 45 7 43 6 93 93 WSW 7 11 29.83 1010 10 16.09344 0 0
10:35 am 10:35 Sunny 46 8 41 5 82 82 W 9 15 29.8 1009 10 16.09344 0 0
10:55 am 10:55 Sunny 48 9 43 6 82 82 W 12 19 29.8 1009 10 16.09344 0 0
11:15 am 11:15 Sunny 50 10 43 6 76 76 WNW 8 13 29.8 1009 10 16.09344 0 0
11:35 am 11:35 Sunny 54 12 41 5 63 63 NW 12 19 29.77 1008 10 16.09344 0 0
11:55 am 11:55 Sunny 55 13 43 6 63 63 WNW 14 22 29.77 1008 10 16.09344 0 0
12:15 pm 12:15 Sunny 57 14 43 6 59 59 NW 10 17 29.74 1007 10 16.09344 0 0
12:35 pm 12:35 Sunny 57 14 43 6 59 59 NW 9 15 29.74 1007 10 16.09344 0 0
12:55 pm 12:55 Sunny 61 16 43 6 52 52 WNW 10 17 29.74 1007 10 16.09344 0 0
1:15 pm 13:15 Sunny 61 16 43 6 52 52 NW 10 17 29.74 1007 10 16.09344 0 0
1:35 pm 13:35 Sunny 63 17 43 6 49 49 NNW 9 15 29.74 1007 10 16.09344 0 0
1:55 pm 13:55 Sunny 63 17 43 6 49 49 NW 10 17 29.74 1007 10 16.09344 0 0
2:15 pm 14:15 Sunny 64 18 41 5 43 43 NW 10 17 29.71 1006 10 16.09344 0 0
2:35 pm 14:35 Sunny 64 18 41 5 43 43 NW 10 17 29.71 1006 10 16.09344 0 0
2:55 pm 14:55 Sunny 64 18 39 4 40 40 WNW 10 17 29.71 1006 10 16.09344 0 0
3:15 pm 15:15 Sunny 66 19 39 4 37 37 WNW 8 13 29.71 1006 10 16.09344 0 0
3:35 pm 15:35 Sunny 66 19 39 4 37 37 NW 8 13 29.71 1006 10 16.09344 0 0
3:55 pm 15:55 Sunny 66 19 37 3 35 35 WNW 8 13 29.71 1006 10 16.09344 0 0
4:15 pm 16:15 Sunny 66 19 37 3 35 35 W 9 15 29.71 1006 10 16.09344 0 0
4:35 pm 16:35 Sunny 66 19 37 3 35 35 NW 8 13 29.71 1006 10 16.09344 0 0
4:55 pm 16:55 Sunny 66 19 36 2 32 32 WNW 6 9 29.71 1006 10 16.09344 0 0
5:15 pm 17:15 Sunny 66 19 36 2 32 32 W 6 9 29.74 1007 10 16.09344 0 0
5:35 pm 17:35 Sunny 66 19 36 2 32 32 WNW 5 7 29.74 1007 10 16.09344 0 0
5:55 pm 17:55 Sunny 66 19 37 3 35 35 Calm 29.74 1007 10 16.09344 0 0
6:15 pm 18:15 Sunny 64 18 37 3 37 37 Calm 29.74 1007 10 16.09344 0 0
6:35 pm 18:35 Sunny 61 16 37 3 42 42 Calm 29.77 1008 10 16.09344 0 0
7:15 pm 19:15 Clear 59 15 39 4 48 48 SSW 7 11 29.77 1008 10 16.09344 0 0
7:35 pm 19:35 Clear 55 13 39 4 55 55 S 7 11 29.8 1009 10 16.09344 0 0
7:55 pm 19:55 Clear 55 13 39 4 55 55 S 7 11 29.8 1009 10 16.09344 0 0
8:15 pm 20:15 Clear 52 11 39 4 62 62 Calm 29.8 1009 10 16.09344 0 0
8:35 pm 20:35 Clear 54 12 37 3 54 54 SW 5 7 29.83 1010 10 16.09344 0 0
8:55 pm 20:55 Clear 54 12 37 3 54 54 WSW 5 7 29.83 1010 10 16.09344 0 0
9:15 pm 21:15 Clear 52 11 37 3 58 58 SW 3 6 29.8 1009 10 16.09344 0 0
9:35 pm 21:35 Clear 50 10 37 3 62 62 WSW 3 6 29.85 1011 10 16.09344 0 0
9:55 pm 21:55 Clear 52 11 37 3 58 58 WSW 5 7 29.85 1011 10 16.09344 0 0

Powered by AerisWeather